Powrót do katalogu

STARLINK-32086

AktywnyŁącznośćVLEO
NORAD 59703·PAYLOAD·🇺🇸 United States

Wystrzelony May 8, 2024 z Cape Canaveral Space Force Station

Loading…

Następne Przeloty (najbliższe 24 godziny)

TLE

ŚwieżeSource: CelesTrak SupGP

Epoka: Sep 14, 2026, 22:10 UTC

1 59703C 24086X   26257.92409722  .00067884  00000+0  24589-2 0  2570
2 59703  42.9998  70.8848 0001376 242.3256 230.8848 15.27543482    18

Śledź STARLINK-32086 w czasie rzeczywistym z AllMySat

Download on the App Store